This demonstration page uses our WeatherBlox Daily Observations layout. Learn more.

Left ArrowRight Arrow

Hourly Observations for March 2, 2019

Temp ( °F °C ) Dew Point ( °F °C ) Humidity (%) Winds ( mph kmh ) Pressure ( in mb ) Visibility ( mi km ) Precip ( " mm )
12:51 am 00:51 Clear 48 8.9 36 2.2 63 63 N N/A 29.95 1014 10 16 N/A
1:51 am 01:51 Clear 50 10 36 2.2 59 59 E 3 6 29.94 1014 10 16 N/A
2:51 am 02:51 Clear 51 10.6 36 2.2 56 56 NE 3 6 29.93 1013 10 16 N/A
3:51 am 03:51 Clear 49 9.4 37 2.8 64 64 SSE 5 7 29.93 1013 10 16 N/A
4:51 am 04:51 Clear 49 9.4 37 2.8 64 64 ESE 6 9 29.93 1013 10 16 N/A
5:51 am 05:51 Clear 50 10 37 2.8 61 61 E 5 7 29.94 1014 10 16 N/A
6:51 am 06:51 Sunny 49 9.4 37 2.8 64 64 SE 5 7 29.96 1015 10 16 N/A
7:51 am 07:51 Sunny 49 9.4 37 2.8 64 64 S 7 11 29.98 1015 10 16 N/A
8:51 am 08:51 Sunny 56 13.3 37 2.8 49 49 SE 5 7 29.98 1015 10 16 N/A
9:51 am 09:51 Sunny 63 17.2 35 1.7 35 35 SE 8 13 29.96 1015 10 16 N/A
10:51 am 10:51 Sunny 66 18.9 35 1.7 32 32 S 5 7 29.96 1015 10 16 N/A
11:51 am 11:51 Sunny 69 20.6 34 1.1 27 27 VRB 3 6 29.93 1014 10 16 N/A
12:51 pm 12:51 Sunny 73 22.8 35 1.7 25 25 VRB 5 7 29.89 1012 10 16 N/A
1:51 pm 13:51 Sunny 74 23.3 33 0.6 22 22 WSW 7 11 29.86 1011 10 16 N/A
2:51 pm 14:51 Sunny 75 23.9 34 1.1 22 22 W 10 17 29.83 1010 10 16 N/A
3:51 pm 15:51 Cloudy 73 22.8 26 -3.3 17 17 NW 29 46 29.84 1011 10 16 N/A
4:51 pm 16:51 Cloudy 70 21.1 33 0.6 26 26 NNW 23 37 29.85 1011 10 16 N/A
5:51 pm 17:51 Partly Cloudy 66 18.9 34 1.1 30 30 NW 17 28 29.87 1012 10 16 N/A
6:51 pm 18:51 Clear 64 17.8 37 2.8 37 37 NNW 16 26 29.88 1012 10 16 N/A
7:51 pm 19:51 Clear 63 17.2 37 2.8 38 38 NW 13 20 29.90 1013 10 16 N/A
8:51 pm 20:51 Clear 62 16.7 38 3.3 41 41 NW 15 24 29.90 1013 10 16 N/A
9:51 pm 21:51 Clear 62 16.7 40 4.4 44 44 NNW 16 26 29.89 1012 10 16 N/A
10:51 pm 22:51 Clear 60 15.6 39 3.9 46 46 NNW 10 17 29.89 1012 10 16 N/A
11:51 pm 23:51 Clear 58 14.4 40 4.4 51 51 NW 7 11 29.88 1012 10 16 N/A

Powered by AerisWeather